Location: Bittkow
(50.3000°N, 19.0000°E)
Time: 12:51:20
(UTC+00:00)

Cosmos 1238 Rocket - Pass Details

Date: 19 September 2020
Orbit: 375 x 1028 km, 82.9° (Epoch: 22 October)

Event Time Altitude Azimuth Distance (km) Brightness Sun altitude
Rises 03:01:41 0° 345° (NNW) 3,782 7.1 -14.0°
Reaches altitude 10° 03:04:26 10° 339° (NNW) 2,836 6.4 -13.6°
Maximum altitude 03:10:30 40° 273° (W) 1,460 4.5 -12.7°
Drops below altitude 10° 03:16:15 10° 207° (SSW) 2,670 5.9 -11.8°
Sets 03:18:46 0° 200° (SSW) 3,538 6.6 -11.4°
